Reading, PA

3:58 PM EST on December 09, 2019 (GMT -0500)
Reading Regional-Spaatz

Weather History for KRDG - November, 2019

Change the Weather History Date:

Tuesday, November 12, 2019

  Actual Average Record
Temperature  
Mean Temperature 39 °F 45 °F  
Max Temperature 56 °F 55 °F 74 °F (1964)
Min Temperature 22 °F 36 °F 21 °F (1918)
Degree Days  
Heating Degree Days 26 20  
Month to date heating degree days 270 214  
Since 1 July heating degree days 509 652  
Cooling Degree Days 0 0  
Month to date cooling degree days 0 0  
Year to date cooling degree days 1239 896  
Moisture  
Dew Point 29 °F    
Average Humidity 72    
Maximum Humidity 96    
Minimum Humidity 33    
Precipitation  
Precipitation 0.15 in 0.10 in 1.33 in (1995)
Month to date precipitation 0.43 1.31  
Year to date precipitation 49.19 37.83  
Sea Level Pressure  
Sea Level Pressure 29.96 in    
Wind  
Wind Speed 11 mph ()    
Max Wind Speed 26 mph    
Max Gust Speed 33 mph    
Visibility 9.7 miles    
Events Rain    
T = Trace of Precipitation, MM = Missing Value Source: Averaged Metar Reports

Daily Weather History Graph

Daily Weather History Graph

Search for Another Location

Airport or City:

Astronomy

Nov. 12, 2019 Rise Set
Actual Time 6:46 AM EST 4:49 PM EST
Civil Twilight 6:17 AM EST 5:18 PM EST
Nautical Twilight 5:44 AM EST 5:51 PM EST
Astronomical Twilight 5:12 AM EST 6:23 PM EST
Moon 5:15 PM EST (11/12) 6:35 AM EST (11/12)
Length of Visible Light 11h 01m
Length of Day
10h 03m
Full, 100% of the Moon is Illuminated
Nov 12
Full
Nov 19
Last Quarter
Nov 26
New
Dec 4
First Quarter
Dec 12
Full

Hourly Weather History & Observations

Time (EST) Temp. Windchill Dew Point Humidity Pressure Visibility Wind Dir Wind Speed Gust Speed Precip Events Conditions
12:54 AM 55.9 °F - 46.9 °F 72% 29.75 in 10.0 mi SSW 8.1 mph - N/A   Clear
1:54 AM 55.0 °F - 46.0 °F 72% 29.73 in 10.0 mi SW 6.9 mph - N/A   Clear
2:54 AM 55.0 °F - 46.0 °F 72% 29.72 in 10.0 mi WSW 5.8 mph - N/A   Overcast
3:54 AM 53.1 °F - 46.9 °F 80% 29.72 in 9.0 mi WSW 4.6 mph - 0.00 in Rain Light Rain
4:54 AM 51.1 °F - 48.9 °F 92% 29.74 in 9.0 mi West 6.9 mph - 0.04 in Rain Light Rain
5:40 AM 50.0 °F - 48.9 °F 96% 29.74 in 7.0 mi West 5.8 mph - 0.04 in Rain Rain
5:54 AM 50.0 °F - 48.9 °F 96% 29.76 in 7.0 mi West 5.8 mph - 0.06 in Rain Rain
6:07 AM 50.0 °F - 48.9 °F 96% 29.75 in 8.0 mi West 6.9 mph - 0.01 in Rain Light Rain
6:21 AM 43.0 °F 34.5 °F 41.0 °F 93% 29.79 in 10.0 mi NW 19.6 mph 31.1 mph 0.03 in Rain Rain
6:54 AM 39.9 °F 31.8 °F 37.9 °F 93% 29.84 in 10.0 mi NNW 15.0 mph 25.3 mph 0.05 in Rain Light Rain
7:54 AM 37.9 °F 28.9 °F 36.0 °F 93% 29.88 in 10.0 mi WNW 16.1 mph - 0.00 in   Overcast
8:50 AM 35.6 °F 25.9 °F 33.8 °F 93% 29.90 in 10.0 mi NW 16.1 mph - N/A   Overcast
8:54 AM 36.0 °F 27.1 °F 33.1 °F 89% 29.92 in 10.0 mi WNW 13.8 mph - N/A   Overcast
9:54 AM 35.1 °F 25.5 °F 30.0 °F 82% 29.97 in 10.0 mi NW 15.0 mph 25.3 mph N/A   Overcast
10:39 AM 35.1 °F 25.9 °F 27.0 °F 72% 29.97 in 10.0 mi NNW 13.8 mph 24.2 mph N/A   Overcast
10:54 AM 35.1 °F 24.1 °F 26.1 °F 70% 29.99 in 10.0 mi NNW 19.6 mph 26.5 mph N/A   Mostly Cloudy
11:01 AM 35.1 °F 24.8 °F 26.1 °F 70% 29.97 in 10.0 mi NW 17.3 mph - N/A   Mostly Cloudy
11:54 AM 34.0 °F 22.4 °F 27.0 °F 75% 30.00 in 10.0 mi NW 20.7 mph - N/A   Overcast
12:44 PM 34.0 °F 23.4 °F 25.0 °F 70% 30.00 in 10.0 mi NNW 17.3 mph 26.5 mph N/A   Scattered Clouds
12:54 PM 34.0 °F 23.8 °F 25.0 °F 70% 30.01 in 10.0 mi NNW 16.1 mph - N/A   Scattered Clouds
1:01 PM 34.0 °F 24.6 °F 25.0 °F 70% 30.00 in 10.0 mi NNW 13.8 mph - N/A   Mostly Cloudy
1:54 PM 34.0 °F 23.0 °F 23.0 °F 64% 30.01 in 10.0 mi NNW 18.4 mph 26.5 mph N/A   Mostly Cloudy
2:01 PM 34.0 °F 23.0 °F 23.0 °F 64% 30.00 in 10.0 mi NNW 18.4 mph 26.5 mph N/A   Scattered Clouds
2:54 PM 35.1 °F 24.5 °F 23.0 °F 61% 30.02 in 10.0 mi NNW 18.4 mph 24.2 mph N/A   Scattered Clouds
3:54 PM 34.0 °F 24.2 °F 21.0 °F 59% 30.04 in 10.0 mi NNW 15.0 mph 25.3 mph N/A   Partly Cloudy
4:54 PM 32.0 °F 23.0 °F 21.0 °F 64% 30.06 in 10.0 mi North 11.5 mph - N/A   Scattered Clouds
5:54 PM 32.0 °F 21.2 °F 18.0 °F 56% 30.10 in 10.0 mi NNW 16.1 mph 21.9 mph N/A   Scattered Clouds
6:54 PM 30.0 °F 19.5 °F 17.1 °F 59% 30.15 in 10.0 mi NNW 13.8 mph - N/A   Clear
7:54 PM 28.9 °F 17.7 °F 12.9 °F 51% 30.19 in 10.0 mi NNW 15.0 mph - N/A   Clear
8:54 PM 27.0 °F 14.3 °F 1.0 °F 33% 30.22 in 10.0 mi NNW 17.3 mph 32.2 mph N/A   Clear
9:54 PM 25.0 °F 14.2 °F 5.0 °F 43% 30.25 in 10.0 mi NNW 11.5 mph - N/A   Clear
10:54 PM 24.1 °F 13.1 °F 7.0 °F 48% 30.25 in 10.0 mi NW 11.5 mph - N/A   Clear
11:54 PM 24.1 °F 12.0 °F 7.0 °F 48% 30.26 in 10.0 mi NW 13.8 mph - N/A   Clear